V.a. San Pedro — WAW957 — position and weather

sailwx.info

Track history (hours):
 
Tides and Currents Weather Stations Pressure Air Temp Water Temp Dewpoint Dewpoint Depression Visibility Wind Speed Wind Dir Waves Ship Positions

V.a. San Pedro

Last reported at 2017-Nov-18 22:45 UTC. Time now 2017-Nov-24 16:44 UTC.
Position N 34°02' W 119°03'.

Length 10 m.

Type: Towing. MMSI: 338181878.

Date/timePositionNaut miles runAvg speedWind from/ knotsBaromVisibWave heightAir tempDewpointWater temp
2017-Nov-18 22:45N 34°02' W 119°03'416.5
2017-Nov-18 22:30N 34°04' W 119°08'1116.1
2017-Nov-18 21:49N 34°12' W 119°17'2 7.5
2017-Nov-18 21:29N 34°15' W 119°16'0 0.6
2017-Nov-18 21:00N 34°15' W 119°16'1 1.3
2017-Nov-18 20:26N 34°14' W 119°17'3 5.7
2017-Nov-18 20:00N 34°15' W 119°20'4 6.4
2017-Nov-18 19:27N 34°16' W 119°24'10 6.2
2017-Nov-18 17:49N 34°18' W 119°36'11 5.9
2017-Nov-18 15:58N 34°20' W 119°49'4 5.8
2017-Nov-18 15:20N 34°20' W 119°53'2 5.7
2017-Nov-18 15:00N 34°20' W 119°55'5 5.3
2017-Nov-18 14:05N 34°21' W 120°01'0 4.8
2017-Nov-18 14:00N 34°21' W 120°02'3 5.3
2017-Nov-18 13:27N 34°21' W 120°05'2 5.3
2017-Nov-18 13:00N 34°21' W 120°08'3 5.2
2017-Nov-18 12:26N 34°22' W 120°12'2 5.2
2017-Nov-18 12:00N 34°22' W 120°14'3 5.9
2017-Nov-18 11:30N 34°23' W 120°18'3 6.0
2017-Nov-18 11:00N 34°24' W 120°21'3 5.9
2017-Nov-18 10:30N 34°24' W 120°25'3 5.8
2017-Nov-18 10:00N 34°25' W 120°28'3 6.1
2017-Nov-18 09:30N 34°26' W 120°32'3 6.0
2017-Nov-18 09:00N 34°27' W 120°35'3 6.1
2017-Nov-18 08:28N 34°29' W 120°38'3 6.0
2017-Nov-18 08:00N 34°31' W 120°40'1 2.7
2017-Nov-18 07:28N 34°33' W 120°41'8 5.8
2017-Nov-18 06:07N 34°40' W 120°44'1 6.0
2017-Nov-18 06:00N 34°41' W 120°45'3 6.1
2017-Nov-18 05:28N 34°44' W 120°46'3 6.1
2017-Nov-18 05:00N 34°47' W 120°46'3 5.8
2017-Nov-18 04:30N 34°49' W 120°46'3 6.1
2017-Nov-18 04:00N 34°52' W 120°47'3 6.3
2017-Nov-18 03:28N 34°56' W 120°48'3 6.0
2017-Nov-18 03:00N 34°58' W 120°50'2 0.2
2017-Nov-17 15:04N 35°00' W 120°51'114.3
2017-Nov-17 15:00N 34°60' W 120°51'816.0
2017-Nov-17 14:30N 34°52' W 120°48'815.0
2017-Nov-17 14:00N 34°45' W 120°46'1216.7
2017-Nov-17 13:17N 34°33' W 120°41'516.7
2017-Nov-17 12:58N 34°29' W 120°38'816.8
2017-Nov-17 12:30N 34°24' W 120°31'816.8
2017-Nov-17 12:00N 34°21' W 120°21'816.9
2017-Nov-17 11:30N 34°18' W 120°11'1016.4
2017-Nov-17 10:55N 34°16' W 119°60'716.0
2017-Nov-17 10:29N 34°15' W 119°52'714.3
2017-Nov-17 10:00N 34°13' W 119°44'1015.9
2017-Nov-17 09:23N 34°10' W 119°32'615.8
2017-Nov-17 09:00N 34°08' W 119°25'815.5
2017-Nov-17 08:29N 34°06' W 119°16'815.8
2017-Nov-17 08:00N 34°03' W 119°08'816.1
2017-Nov-17 07:30N 33°59' W 118°59'  
Track history (hours):
 
Tides and Currents Weather Stations Pressure Air Temp Water Temp Dewpoint Dewpoint Depression Visibility Wind Speed Wind Dir Waves Ship Positions

V.a. San Pedro

Last reported at 2017-Nov-18 22:45 UTC. Time now 2017-Nov-24 16:44 UTC.
Position N 34°02' W 119°03'.

Length 10 m.

Type: Towing. MMSI: 338181878.

Date/timePositionNaut miles runAvg speedWind from/ knotsBaromVisibWave heightAir tempDewpointWater temp
2017-Nov-18 22:45N 34°02' W 119°03'416.5
2017-Nov-18 22:30N 34°04' W 119°08'1116.1
2017-Nov-18 21:49N 34°12' W 119°17'2 7.5
2017-Nov-18 21:29N 34°15' W 119°16'0 0.6
2017-Nov-18 21:00N 34°15' W 119°16'1 1.3
2017-Nov-18 20:26N 34°14' W 119°17'3 5.7
2017-Nov-18 20:00N 34°15' W 119°20'4 6.4
2017-Nov-18 19:27N 34°16' W 119°24'10 6.2
2017-Nov-18 17:49N 34°18' W 119°36'11 5.9
2017-Nov-18 15:58N 34°20' W 119°49'4 5.8
2017-Nov-18 15:20N 34°20' W 119°53'2 5.7
2017-Nov-18 15:00N 34°20' W 119°55'5 5.3
2017-Nov-18 14:05N 34°21' W 120°01'0 4.8
2017-Nov-18 14:00N 34°21' W 120°02'3 5.3
2017-Nov-18 13:27N 34°21' W 120°05'2 5.3
2017-Nov-18 13:00N 34°21' W 120°08'3 5.2
2017-Nov-18 12:26N 34°22' W 120°12'2 5.2
2017-Nov-18 12:00N 34°22' W 120°14'3 5.9
2017-Nov-18 11:30N 34°23' W 120°18'3 6.0
2017-Nov-18 11:00N 34°24' W 120°21'3 5.9
2017-Nov-18 10:30N 34°24' W 120°25'3 5.8
2017-Nov-18 10:00N 34°25' W 120°28'3 6.1
2017-Nov-18 09:30N 34°26' W 120°32'3 6.0
2017-Nov-18 09:00N 34°27' W 120°35'3 6.1
2017-Nov-18 08:28N 34°29' W 120°38'3 6.0
2017-Nov-18 08:00N 34°31' W 120°40'1 2.7
2017-Nov-18 07:28N 34°33' W 120°41'8 5.8
2017-Nov-18 06:07N 34°40' W 120°44'1 6.0
2017-Nov-18 06:00N 34°41' W 120°45'3 6.1
2017-Nov-18 05:28N 34°44' W 120°46'3 6.1
2017-Nov-18 05:00N 34°47' W 120°46'3 5.8
2017-Nov-18 04:30N 34°49' W 120°46'3 6.1
2017-Nov-18 04:00N 34°52' W 120°47'3 6.3
2017-Nov-18 03:28N 34°56' W 120°48'3 6.0
2017-Nov-18 03:00N 34°58' W 120°50'2 0.2
2017-Nov-17 15:04N 35°00' W 120°51'114.3
2017-Nov-17 15:00N 34°60' W 120°51'816.0
2017-Nov-17 14:30N 34°52' W 120°48'815.0
2017-Nov-17 14:00N 34°45' W 120°46'1216.7
2017-Nov-17 13:17N 34°33' W 120°41'516.7
2017-Nov-17 12:58N 34°29' W 120°38'816.8
2017-Nov-17 12:30N 34°24' W 120°31'816.8
2017-Nov-17 12:00N 34°21' W 120°21'816.9
2017-Nov-17 11:30N 34°18' W 120°11'1016.4
2017-Nov-17 10:55N 34°16' W 119°60'716.0
2017-Nov-17 10:29N 34°15' W 119°52'714.3
2017-Nov-17 10:00N 34°13' W 119°44'1015.9
2017-Nov-17 09:23N 34°10' W 119°32'615.8
2017-Nov-17 09:00N 34°08' W 119°25'815.5
2017-Nov-17 08:29N 34°06' W 119°16'815.8
2017-Nov-17 08:00N 34°03' W 119°08'816.1
2017-Nov-17 07:30N 33°59' W 118°59'  

Dump ship's entire track history